Theta_e
293 293 293 293 294 294 295 296 296 296 295 296 298 298 298 299 300 299 301 302 303 302 302 301 299 297 296 295 293 293 293 294 293 294 294 294 295 295 296 296 298 298 300 301 302 301 302 302 303 303 304 303 302 302 303 304 304 306 306 305 305 304 302 303 303 304 305 305 307 308 309 309 307 305 303 304 306 307 306 305 303 304 305 304 304
292 293 292 293 293 294 294 295 295 295 295 296 296 297 298 299 299 299 299 299 299 300 299 297 296 295 294 293 292 292 292 292 291 292 292 293 294 294 294 295 295 295 296 297 298 299 299 299 300 300 301 301 301 301 301 301 302 303 304 305 305 303 301 302 302 304 302 300 301 303 306 308 308 304 303 305 306 307 305 304 304 304 304 303 303
292 291 292 292 293 293 294 294 294 294 294 295 296 297 297 298 298 299 299 298 298 298 297 295 295 295 293 292 291 290 292 292 292 292 292 292 292 293 293 293 294 294 294 294 295 295 295 296 296 297 298 299 298 298 299 299 300 300 301 301 302 302 301 301 301 301 299 300 303 302 301 300 304 302 304 303 304 304 303 305 305 304 303 304 303
291 291 291 291 292 292 293 292 293 293 294 294 295 295 296 297 297 297 297 296 295 294 293 293 293 293 293 292 292 292 291 292 292 292 292 292 291 292 292 293 293 293 293 293 293 294 294 293 294 294 294 295 295 294 295 295 296 298 298 299 301 299 299 299 301 300 299 299 297 297 298 299 297 300 297 301 304 303 304 304 303 302 304 304 303
291 291 291 291 291 291 291 291 292 292 292 293 293 293 294 295 296 296 296 295 295 294 293 293 292 292 292 293 293 292 293 292 291 290 290 290 290 290 290 292 292 292 292 292 292 293 293 293 293 293 293 293 294 293 292 293 294 295 296 296 297 297 295 297 298 299 299 300 297 296 297 296 295 295 296 299 302 301 302 302 302 302 302 301 301
291 290 290 290 290 290 291 291 291 291 291 291 292 293 294 294 295 295 295 295 294 295 295 295 294 293 293 292 290 290 289 289 288 288 288 288 288 290 290 291 291 291 291 291 292 291 292 292 293 292 292 292 293 292 292 292 292 293 293 294 294 296 293 292 292 297 296 297 299 298 297 293 292 294 295 292 298 300 301 301 301 301 301 300 299
290 290 290 290 290 290 290 290 290 290 289 290 291 291 292 293 293 293 293 293 293 293 293 293 293 293 292 292 291 289 288 288 289 289 289 289 290 289 289 290 290 290 290 290 291 291 291 291 291 291 291 291 291 291 291 291 292 292 293 292 292 293 293 290 290 291 292 293 295 296 296 296 296 294 290 291 288 294 296 297 298 300 299 297 297
290 290 289 289 289 290 289 289 289 288 289 290 290 290 291 291 291 291 291 291 292 292 292 293 292 292 291 291 290 289 288 288 289 289 290 290 289 289 289 289 289 290 289 290 290 290 290 290 291 290 290 290 289 289 289 290 291 291 291 292 292 291 292 290 289 290 288 289 292 292 292 292 295 296 295 290 288 285 287 293 296 296 295 295 297
290 290 289 289 289 288 288 288 288 288 289 289 289 289 290 290 290 290 290 290 291 292 292 292 292 291 291 290 289 289 289 289 289 290 289 289 289 289 289 289 289 289 289 289 289 289 289 289 290 289 289 288 288 289 288 288 288 288 289 289 290 289 290 290 289 289 289 288 289 289 290 290 291 292 292 291 287 286 286 287 287 291 292 293 294
289 290 289 289 288 288 288 288 288 288 288 288 289 289 290 290 289 289 289 290 290 291 291 291 292 291 291 290 289 289 289 289 290 289 289 289 288 288 288 288 288 288 288 288 289 288 289 289 288 288 287 287 286 286 286 286 287 287 288 288 288 288 289 289 288 288 289 289 289 289 287 287 288 288 288 288 288 289 285 285 287 286 285 288 291
289 289 289 289 288 288 287 287 287 287 288 288 289 289 290 289 289 289 289 289 290 290 291 291 291 291 291 291 290 289 290 289 289 288 288 288 287 288 287 288 288 288 288 288 288 288 288 288 288 288 288 287 287 287 287 287 287 287 287 288 287 287 287 288 288 287 288 288 288 287 286 286 286 285 285 286 286 285 285 285 286 287 286 285 289
289 289 288 288 287 287 287 286 287 287 287 288 288 289 289 289 289 288 288 289 290 290 290 290 291 291 291 290 290 290 290 289 288 288 288 287 288 287 287 287 287 288 287 287 287 288 288 287 288 287 287 287 287 287 287 287 287 287 287 287 287 287 287 287 287 286 286 286 287 287 286 287 287 286 286 286 286 285 285 284 284 286 286 287 289
289 288 288 287 287 286 286 286 286 286 287 287 288 289 289 289 289 288 288 289 289 290 290 290 290 290 290 289 289 289 289 289 288 288 288 287 287 287 287 286 286 286 286 285 286 286 287 286 286 286 286 286 286 286 286 286 287 286 286 286 286 286 285 286 285 285 286 285 285 286 286 287 286 287 287 286 286 286 285 283 284 286 283 284 287
289 288 288 287 287 287 287 286 287 287 287 287 287 288 289 289 289 288 288 289 289 289 289 289 289 289 289 289 289 289 288 288 288 287 287 287 287 286 286 285 285 285 285 285 285 286 286 286 286 285 285 285 285 285 285 286 286 285 285 285 285 285 285 285 285 285 285 285 285 285 285 285 286 287 286 286 285 285 283 283 282 283 284 283 285
289 288 288 288 288 287 287 287 287 287 287 287 287 287 288 288 288 287 287 288 288 288 289 288 288 288 289 289 289 289 288 287 287 287 287 286 286 286 286 285 285 285 284 284 285 285 285 285 285 284 284 284 284 284 285 285 285 285 285 284 284 285 284 285 284 284 284 284 284 284 284 285 285 285 285 285 285 285 284 283 282 280 281 283 282
289 288 288 288 287 287 287 287 287 287 286 287 287 287 288 288 288 288 287 287 288 288 288 288 288 288 288 288 288 287 287 287 286 286 286 286 285 285 284 284 285 284 284 284 284 284 284 284 284 283 283 283 283 283 283 283 283 283 283 283 283 284 283 283 283 284 283 283 284 284 283 284 284 284 285 284 284 285 285 284 284 282 280 278 282
289 288 288 288 287 287 287 287 287 286 286 287 287 287 288 288 287 287 287 287 287 288 287 287 287 287 287 287 287 287 287 286 285 285 285 285 285 285 284 284 284 284 284 284 283 283 283 283 283 283 283 283 283 283 282 283 283 283 282 282 282 283 282 283 283 282 282 283 283 283 282 283 283 284 283 284 284 284 284 284 284 282 282 279 278
289 289 289 288 287 287 287 287 287 286 286 287 286 287 288 288 287 287 287 286 287 287 287 287 286 286 286 286 286 286 286 285 285 285 285 285 285 284 284 284 283 283 283 283 283 283 283 282 282 282 282 282 282 282 282 282 282 282 282 282 282 282 282 282 282 282 282 282 282 282 282 282 283 282 282 283 283 283 283 283 283 283 283 280 279
289 288 288 288 287 287 287 286 287 287 287 287 287 287 287 288 287 287 287 287 287 287 287 287 287 287 286 286 285 285 285 285 285 285 285 284 284 284 283 283 283 283 282 283 282 282 282 282 282 281 281 281 281 281 281 281 281 281 281 281 281 281 281 281 281 281 281 281 281 280 281 281 282 281 281 282 282 282 282 282 282 283 282 282 280
289 289 289 288 288 287 287 287 286 286 286 287 287 287 286 287 287 287 287 287 286 286 286 286 286 286 285 285 285 285 285 284 284 284 284 283 283 283 283 282 282 282 282 282 281 281 281 281 281 280 280 280 280 280 280 280 280 280 280 280 280 279 279 279 280 281 281 280 280 280 280 280 281 281 281 281 281 281 282 281 281 281 281 281 281
290 289 289 288 287 287 287 287 287 287 287 287 286 286 286 287 287 287 286 286 286 286 286 286 285 285 284 284 284 284 284 284 283 283 283 283 282 282 282 282 282 281 281 281 280 280 280 280 279 279 279 279 279 279 279 279 279 278 278 278 278 278 278 278 279 278 279 279 279 279 279 280 280 279 280 280 280 280 281 281 281 281 280 281 280
290 290 289 288 288 287 287 287 287 286 286 286 286 287 286 286 287 286 286 286 286 286 286 285 285 285 284 284 284 283 283 283 283 282 282 282 281 281 281 280 280 280 280 279 279 279 279 279 278 278 278 278 278 278 277 277 277 277 277 278 277 277 277 277 277 277 278 278 278 278 278 278 278 278 278 278 278 278 279 279 279 280 279 279 280
290 289 288 288 288 288 287 286 286 286 286 286 286 286 286 286 286 287 286 286 286 286 286 285 285 284 284 283 283 282 282 282 282 281 280 280 280 279 279 279 279 279 279 278 278 278 277 277 277 277 277 277 277 276 276 276 276 276 276 276 277 276 276 276 276 277 277 277 277 277 277 277 277 276 277 277 277 277 278 277 277 278 277 278 279
290 289 289 289 288 287 286 286 286 286 286 286 286 286 287 286 286 286 286 286 286 286 285 285 284 284 283 282 282 282 282 282 281 280 279 279 279 278 278 278 278 278 277 277 277 276 276 276 276 276 276 276 275 275 275 276 275 275 275 275 276 276 276 276 276 276 276 276 276 275 276 276 276 275 276 276 277 277 276 276 276 277 277 277 278
288 288 288 288 287 286 286 286 286 286 286 286 286 286 286 286 286 286 286 286 286 286 285 284 284 283 282 282 282 282 281 281 280 280 278 278 278 278 277 276 277 277 276 276 276 276 275 276 275 275 275 275 275 274 274 275 275 275 275 275 275 276 276 276 276 276 276 276 275 275 275 275 275 275 275 275 276 275 276 276 275 276 276 277 277
288 288 288 287 287 287 286 286 286 286 286 286 286 286 286 286 286 286 286 285 285 285 284 284 284 283 282 282 281 281 281 280 279 278 278 277 277 276 276 276 276 275 275 275 275 275 275 274 274 274 274 274 274 274 274 274 274 274 275 275 275 276 276 276 276 276 276 276 275 275 275 275 275 274 274 275 275 275 275 275 275 275 275 276 275
288 288 288 288 287 286 286 286 286 286 286 286 286 286 286 286 285 285 285 284 284 284 284 284 283 283 282 282 281 281 280 279 279 278 277 276 276 275 275 275 275 274 274 274 274 273 274 273 273 273 273 273 273 273 273 273 273 274 275 275 275 275 275 275 275 275 276 276 275 275 275 275 274 274 274 274 274 274 274 274 274 274 274 274 274
289 288 288 287 287 287 286 286 286 286 286 286 286 286 286 285 284 284 284 284 285 284 284 283 283 283 282 282 281 281 280 279 278 277 276 275 275 274 274 274 273 273 273 273 273 272 273 273 272 272 272 272 272 272 273 273 273 274 275 275 275 274 275 275 275 275 275 275 275 275 275 275 275 275 274 274 274 273 274 273 274 274 274 273 273
288 288 288 287 287 287 286 286 286 286 286 286 286 286 285 285 285 285 284 284 285 284 283 283 283 282 282 282 280 280 279 278 276 276 275 274 274 273 273 273 272 272 272 272 271 271 271 272 272 271 271 272 271 272 272 272 273 274 275 274 275 274 274 274 274 275 275 275 275 275 275 275 275 274 275 275 275 274 273 272 272 273 273 272 271
287 288 288 288 288 287 287 286 286 286 286 285 285 285 285 285 284 285 284 284 284 284 283 283 283 283 282 281 279 278 277 276 275 274 274 273 273 272 272 272 271 271 271 271 270 271 271 271 271 271 271 271 271 271 270 271 274 274 274 275 274 274 274 274 274 274 274 275 275 275 274 274 274 273 273 274 274 274 275 274 273 273 272 271 271
288 288 288 288 288 287 287 286 286 286 286 286 286 286 286 286 285 285 285 285 284 284 283 283 283 282 281 280 278 277 277 275 275 274 273 272 272 271 271 270 270 269 269 269 269 270 270 270 270 270 270 270 270 270 270 273 274 275 275 274 274 274 274 274 274 274 273 274 274 273 273 273 273 273 273 273 274 274 274 275 275 275 274 272 271
288 288 288 288 287 287 287 286 286 286 286 286 286 286 286 286 287 286 286 285 284 284 283 283 283 281 280 279 278 276 275 274 273 272 271 271 270 269 269 269 269 269 269 269 269 269 269 269 269 269 269 270 270 270 271 272 273 275 275 275 274 274 273 273 274 273 273 272 272 272 272 272 272 272 272 272 273 273 274 274 274 274 274 275 275
289 288 288 288 288 288 288 287 287 287 287 287 287 287 286 287 287 287 286 284 284 284 284 283 282 280 279 278 277 275 274 273 272 271 270 269 268 268 268 268 268 269 268 268 269 268 268 269 268 268 268 269 269 269 270 272 273 274 275 275 274 274 273 273 273 272 272 271 271 271 271 272 272 272 272 272 272 272 274 274 274 274 274 274 275
290 289 289 289 289 288 288 288 287 287 287 288 288 287 288 288 288 287 285 284 284 283 283 283 281 279 278 277 276 274 273 272 271 270 269 268 268 268 269 269 268 268 268 268 267 267 267 267 267 267 267 268 268 268 270 272 273 274 275 275 274 274 273 272 272 272 271 271 271 271 270 270 272 272 272 272 273 272 272 272 272 272 272 274 276
289 289 289 289 289 288 288 288 288 288 288 288 287 288 288 287 286 284 284 283 283 283 282 281 279 278 277 275 274 273 272 271 269 269 268 268 268 268 267 268 268 268 268 267 267 266 266 265 266 266 266 266 267 268 270 271 272 273 275 275 273 272 271 271 271 272 271 271 271 271 271 271 271 272 272 273 272 272 272 272 272 272 272 273 274
289 289 290 289 289 289 288 288 289 288 287 287 287 287 287 286 285 283 282 282 282 282 281 279 278 277 275 275 274 273 271 270 269 268 268 268 268 267 267 268 267 267 267 266 266 266 265 265 265 264 264 265 267 268 269 270 272 273 274 273 272 271 271 271 270 271 271 272 272 272 271 271 271 272 274 275 275 274 273 272 272 272 273 274 274
290 290 289 290 290 289 289 288 287 287 286 286 286 286 285 283 282 282 281 281 281 280 279 278 277 276 274 274 273 272 271 270 269 268 267 268 268 267 267 267 266 267 267 266 265 265 265 264 264 263 263 264 265 266 268 270 272 273 273 271 271 271 270 270 270 271 271 272 272 272 272 272 273 273 275 276 277 276 274 273 273 273 274 274 274
287 287 287 287 287 287 287 287 286 286 286 285 285 284 283 281 280 280 279 279 279 279 279 277 277 276 274 274 273 272 270 269 268 267 267 268 268 268 266 266 266 266 266 265 264 264 264 263 263 262 263 262 263 266 268 270 271 272 272 271 271 270 270 270 270 271 272 272 273 274 274 273 273 273 275 277 278 277 275 274 274 273 273 273 274
287 287 286 285 284 285 284 284 284 283 284 284 283 282 281 280 279 279 278 278 278 279 278 277 277 275 274 273 272 271 270 269 268 268 267 267 266 266 266 265 265 265 264 264 264 264 263 263 263 262 263 263 263 264 267 269 270 271 272 271 271 270 270 270 270 271 272 272 273 274 275 275 274 275 278 278 279 277 275 275 275 274 273 273 274
285 284 285 284 283 282 281 282 282 283 282 281 281 281 280 280 279 278 277 277 278 279 279 278 277 275 273 272 271 269 269 268 267 267 266 266 266 265 264 264 264 265 264 264 263 263 261 262 262 262 262 263 263 263 265 268 270 271 273 272 271 270 270 270 271 271 272 272 273 273 275 276 277 278 278 279 279 279 277 276 275 274 274 273 276
284 283 283 282 282 283 283 283 283 282 280 280 280 280 279 279 278 277 277 278 279 280 279 277 275 273 271 270 270 268 267 267 267 266 265 264 265 265 264 263 262 263 263 263 261 261 261 261 262 262 263 263 263 263 264 268 270 271 272 272 271 271 272 272 272 272 273 272 273 274 274 276 277 277 277 278 279 279 279 276 275 274 274 276 277
281 281 282 282 281 281 282 281 281 280 279 279 279 279 279 279 277 276 277 280 280 279 277 275 273 271 270 268 267 267 266 265 264 264 264 263 263 263 263 262 263 263 261 260 260 261 262 262 263 263 263 263 264 265 265 267 270 271 272 274 273 273 273 273 272 272 273 273 273 273 273 274 276 277 277 278 278 278 278 275 274 277 278 278 275
280 279 280 281 280 280 280 281 280 278 278 278 278 278 279 278 276 277 279 279 279 277 275 273 272 270 268 266 266 264 264 263 262 263 263 263 262 261 261 261 261 260 260 259 260 260 261 261 262 263 264 264 264 265 267 268 270 271 273 274 275 274 275 274 273 272 273 273 273 272 272 274 276 276 276 276 276 276 275 273 276 276 276 276 274
281 281 280 280 281 281 280 281 279 277 277 277 277 277 278 276 277 279 279 277 276 274 273 271 269 268 266 265 263 263 262 262 262 262 262 262 262 261 260 261 261 261 262 262 263 262 262 262 262 263 264 265 266 267 268 269 270 272 273 274 274 275 276 274 274 273 273 272 271 271 272 275 275 274 274 274 274 273 272 274 274 274 274 272 269
280 280 279 279 280 280 280 280 278 275 275 275 276 277 276 275 278 279 276 274 272 271 269 269 268 266 265 264 262 262 261 261 261 261 261 262 260 259 262 262 260 262 262 263 263 263 262 263 263 263 264 265 267 268 269 270 271 272 272 273 274 275 276 276 274 273 273 272 273 274 274 273 272 272 272 271 270 270 271 272 272 271 270 267 267
279 278 277 277 279 279 278 279 277 275 274 274 275 277 276 277 279 277 275 272 270 268 268 268 267 265 264 262 261 261 260 260 260 261 262 263 263 261 263 264 262 263 262 262 263 263 262 262 262 263 264 266 267 268 269 269 270 271 271 273 274 275 275 275 274 273 273 274 273 272 271 270 270 269 268 267 267 267 269 269 269 268 266 266 265
277 279 277 276 276 277 277 277 277 276 274 273 273 275 277 279 276 275 272 270 268 268 268 268 266 265 263 261 261 262 261 259 259 261 262 262 263 263 263 263 263 263 262 262 262 261 262 262 262 263 264 266 267 268 268 269 270 270 271 271 272 273 274 274 273 272 271 269 268 268 267 269 268 268 267 267 267 267 265 265 266 265 265 265 265
280 279 277 277 276 277 277 277 277 278 275 273 273 273 274 275 273 272 269 268 267 268 268 267 266 264 263 261 262 261 261 261 260 260 261 261 261 262 262 263 263 263 263 263 262 262 262 263 263 264 265 266 266 267 268 269 270 270 271 272 273 273 272 272 271 271 267 266 265 266 266 265 264 264 264 264 265 264 264 264 264 264 264 265 265
278 277 276 277 277 276 277 277 278 279 277 273 272 273 273 273 271 269 268 267 268 267 268 267 265 263 263 262 263 262 262 263 262 260 262 263 262 261 262 262 263 263 264 264 264 264 263 263 264 264 265 265 266 266 268 271 271 273 272 272 272 272 272 272 271 272 266 265 265 264 263 263 263 263 263 263 263 263 263 263 263 263 264 264 264
279 278 276 276 276 277 277 277 278 279 277 274 273 272 272 272 269 267 267 268 268 267 267 266 264 263 263 261 262 262 262 263 263 262 261 260 261 264 263 262 262 263 265 267 266 264 264 264 264 265 265 265 266 268 272 273 273 273 274 274 274 275 274 272 272 271 266 264 263 262 262 262 262 262 262 262 262 262 262 262 263 264 263 263 263
278 276 274 274 276 276 276 276 277 277 276 274 273 272 271 269 268 266 266 268 268 267 267 266 263 263 262 261 262 262 262 262 262 262 262 262 262 263 266 268 267 266 267 268 269 270 270 270 266 265 267 271 273 273 273 273 273 273 273 274 274 274 273 272 271 267 265 263 262 261 262 262 262 262 262 262 261 261 261 261 261 262 263 263 263
Wind_Speed
1 2 3 4 4 3 3 3 4 6 6 6 7 8 7 6 7 9 6 7 6 6 6 7 7 7 8 10 10 8 8 8 9 9 9 9 9 9 10 9 10 10 10 10 9 9 9 8 9 10 9 10 10 10 9 9 8 6 4 6 7 6 7 7 8 5 4 5 4 3 3 2 2 1 2 3 4 4 4 3 3 3 4 4 4
2 3 3 3 3 3 3 4 5 6 6 6 7 7 7 7 9 7 6 8 8 8 8 9 8 7 8 8 8 8 8 8 9 8 8 8 10 10 10 10 11 11 10 10 10 10 9 9 9 9 9 9 9 9 10 9 10 10 7 5 6 7 8 9 9 7 5 7 8 6 2 2 2 3 3 6 9 6 3 2 3 4 4 4 3
4 4 3 3 3 4 4 5 4 5 5 6 6 7 7 7 8 7 7 8 8 8 9 10 9 9 9 9 9 9 9 9 9 9 9 10 10 11 10 10 10 10 11 10 9 10 10 10 9 8 9 8 8 9 9 10 9 10 10 7 5 7 7 8 10 10 6 7 4 4 4 6 2 4 5 12 10 4 2 4 4 3 4 4 4
5 4 4 3 4 4 4 4 4 4 4 5 6 7 6 7 7 8 8 9 10 10 12 12 13 13 12 12 11 10 9 9 10 10 10 11 11 11 10 10 11 11 11 10 10 10 10 9 8 9 9 9 8 9 10 11 10 10 10 10 7 7 7 8 9 10 8 8 6 5 5 4 6 2 11 10 2 2 7 7 4 5 6 7 6
5 6 5 4 5 4 4 3 3 4 5 5 4 4 5 7 7 8 9 9 9 11 12 11 12 13 11 11 10 11 9 9 9 10 10 10 10 11 10 11 11 10 11 11 10 10 10 9 9 8 9 9 8 9 9 10 9 9 10 9 10 7 8 7 8 9 11 9 6 5 3 3 5 8 12 5 3 8 5 4 4 5 6 6 6
3 4 4 4 4 4 4 4 4 4 5 4 4 4 5 6 7 8 8 8 8 8 7 7 8 9 9 9 9 8 9 8 9 8 8 9 9 8 10 10 10 10 10 11 10 9 10 9 9 9 9 8 8 8 8 9 10 10 9 8 9 9 7 7 7 7 8 9 9 7 4 4 7 9 8 6 9 6 3 5 5 6 5 6 8
2 3 4 4 4 4 4 4 4 5 4 3 4 5 6 6 7 7 7 7 7 7 7 7 8 8 9 9 9 9 10 8 7 6 7 7 6 8 8 9 10 10 10 10 10 10 9 9 9 9 8 8 8 8 8 9 8 8 8 8 8 8 8 8 8 7 5 8 7 6 5 4 4 6 6 9 10 5 4 7 7 4 6 9 9
5 5 4 3 3 3 5 4 4 4 4 4 4 5 6 7 8 8 7 7 7 7 7 7 9 9 10 11 9 9 10 9 8 7 7 6 7 7 7 8 9 9 9 10 10 9 9 9 9 9 9 8 8 8 8 8 7 7 7 7 7 7 8 7 7 7 7 6 7 7 6 5 4 3 4 5 8 11 11 6 3 7 10 8 6
6 6 6 6 5 4 4 4 4 4 3 4 4 5 6 7 8 9 9 8 7 8 8 8 9 9 10 9 11 9 9 8 7 6 6 6 8 7 7 7 8 9 9 9 10 9 9 8 8 9 8 8 7 7 8 8 8 8 8 8 8 7 6 6 6 6 6 6 6 6 6 6 6 4 4 6 7 10 11 9 11 8 6 6 6
5 5 5 5 4 3 3 4 5 4 3 4 5 5 6 7 9 11 10 8 8 9 10 10 9 9 10 10 13 9 8 7 6 7 6 5 7 7 6 6 6 7 8 9 9 9 9 9 8 9 9 8 7 7 6 7 7 7 7 7 7 7 6 6 6 5 5 5 5 5 6 6 5 5 5 7 7 6 10 13 11 14 13 6 5
7 6 5 5 3 4 4 5 5 5 4 4 5 5 6 8 9 11 10 8 8 9 10 10 9 9 10 10 11 11 9 8 8 7 6 6 7 6 6 6 6 6 6 6 8 7 7 8 7 7 6 6 6 7 7 6 6 6 5 6 7 7 6 5 5 6 5 5 6 5 5 5 5 6 7 7 7 8 10 11 11 11 12 15 5
8 7 7 7 6 5 5 6 6 6 5 5 5 5 6 7 9 13 10 9 8 8 9 10 9 10 10 10 10 9 8 7 8 8 7 7 6 6 5 5 5 5 5 6 7 7 6 6 6 6 7 7 7 6 6 6 5 5 5 5 5 6 6 5 5 6 7 4 5 5 4 4 5 5 6 6 7 8 9 11 11 12 12 10 9
9 8 8 8 8 8 8 7 7 7 6 7 6 6 7 8 9 13 10 8 8 8 10 10 10 9 9 9 9 8 8 9 8 8 6 6 5 6 6 6 5 6 6 6 7 8 6 6 7 6 6 6 6 6 6 6 5 5 5 5 5 5 5 5 5 5 5 5 4 4 4 4 4 4 5 6 6 7 8 11 10 9 12 14 11
9 8 8 8 8 8 8 8 7 7 7 7 7 6 6 7 8 12 10 8 8 9 10 10 10 9 8 8 8 7 8 8 7 7 6 6 5 6 5 5 5 5 5 6 5 5 5 5 5 5 5 5 6 5 5 5 5 4 4 5 5 4 4 4 4 5 4 4 4 4 4 4 4 4 5 5 6 7 8 9 11 10 10 13 11
8 8 8 8 8 8 8 7 7 7 8 7 6 6 7 8 9 11 11 9 9 9 9 10 9 9 8 7 7 7 7 7 7 6 6 6 5 5 5 4 5 4 4 4 4 4 4 4 5 5 5 5 5 5 4 4 4 3 3 4 3 4 4 4 3 4 4 5 5 4 5 4 4 4 5 5 5 5 7 8 9 13 13 10 11
9 9 9 9 8 8 7 7 7 7 8 6 7 6 7 8 9 10 11 10 9 9 9 9 9 8 8 8 8 8 7 7 7 6 6 6 5 5 5 4 4 4 3 3 2 2 2 2 3 4 4 4 4 4 4 3 3 3 3 3 3 2 3 3 3 3 4 5 4 4 4 4 4 5 5 5 5 5 6 6 7 8 10 15 12
10 10 9 10 9 8 7 8 7 7 7 8 8 7 8 9 10 11 10 9 9 9 9 9 9 9 9 8 8 7 7 7 7 7 6 5 5 4 5 4 3 3 3 2 2 2 3 3 3 4 4 4 4 4 4 4 3 2 3 3 3 3 3 3 3 3 4 4 4 4 4 5 5 5 5 5 6 6 6 6 6 7 8 10 13
10 10 9 10 10 10 9 8 8 9 9 8 9 7 7 7 10 12 11 12 9 9 9 9 10 9 9 8 7 7 7 7 7 6 5 5 5 4 4 4 4 3 2 1 2 2 2 3 3 3 3 3 3 3 3 3 3 2 2 2 2 3 3 3 3 3 4 4 4 4 5 5 5 5 5 6 6 6 7 6 7 7 7 9 11
11 12 11 11 11 11 10 10 9 8 8 8 8 7 7 7 8 9 11 11 11 8 8 7 7 6 6 7 7 6 6 6 5 5 5 5 5 4 4 3 3 2 2 2 2 2 2 2 2 2 2 2 2 2 3 3 3 3 3 2 3 4 4 4 3 4 4 4 5 5 5 5 5 6 6 6 6 6 6 7 8 8 8 9 10
12 12 12 11 11 12 12 11 11 10 9 8 9 8 9 8 9 9 9 9 9 10 9 9 7 7 7 7 6 6 6 6 5 5 5 5 5 4 4 3 3 2 2 2 2 2 2 2 2 2 2 2 3 3 3 4 4 4 4 4 4 5 5 5 4 4 3 4 5 6 6 5 6 6 7 6 6 7 7 8 8 8 9 9 10
13 12 12 11 11 11 10 9 9 8 8 8 8 9 9 8 9 9 11 11 10 10 9 8 7 8 8 8 7 6 6 5 6 5 5 5 5 4 3 3 2 2 1 1 2 1 2 2 2 2 3 3 4 5 4 4 4 4 4 4 5 5 5 4 4 5 4 5 5 6 6 6 7 7 7 7 7 8 8 8 8 8 9 9 9
12 11 10 10 11 10 10 9 8 8 8 10 9 9 9 10 9 10 10 10 11 10 9 9 8 8 8 8 8 6 6 5 6 5 5 5 4 3 3 2 3 2 1 1 1 1 2 3 2 3 4 4 4 4 4 4 4 4 4 3 4 5 5 5 4 5 5 5 5 6 7 7 7 7 8 8 8 8 8 8 8 8 9 9 9
12 10 10 10 10 9 10 11 11 12 11 12 10 10 10 11 10 10 10 11 10 10 9 8 8 8 9 8 7 6 6 6 6 5 5 4 3 3 2 2 2 2 2 1 2 2 2 3 2 3 3 3 3 3 3 3 3 4 4 4 4 4 5 5 5 6 6 6 6 6 7 7 6 8 8 8 8 8 7 8 10 9 10 10 10
8 8 9 9 8 8 9 12 13 12 12 12 11 10 10 10 11 10 11 12 11 10 9 9 8 9 9 8 7 7 7 6 6 5 5 4 3 3 2 2 2 2 2 2 2 2 2 2 2 2 2 3 3 3 3 3 3 4 4 5 4 4 4 5 5 6 6 6 7 7 7 7 8 8 8 8 7 7 8 8 9 9 9 10 10
11 11 11 11 11 12 12 12 13 12 11 12 12 12 12 11 11 11 11 11 10 9 9 9 10 10 9 8 8 7 7 6 6 5 5 5 4 3 2 2 2 2 2 1 1 1 1 1 1 2 3 3 3 3 3 3 3 3 4 4 5 5 5 5 5 5 6 6 7 7 8 8 8 8 9 8 8 10 9 9 9 9 9 10 9
13 12 12 15 15 12 12 13 12 12 12 12 12 12 12 12 12 11 11 10 9 9 10 10 10 9 9 9 8 7 7 7 6 5 6 4 4 3 3 2 2 2 1 1 1 1 1 2 1 2 3 3 3 3 3 4 4 4 4 5 4 5 5 5 6 5 6 6 6 7 7 8 8 9 9 9 9 11 10 10 11 11 10 10 11
15 16 14 11 9 15 16 15 13 13 13 12 13 13 12 12 12 11 9 9 10 10 10 10 10 9 9 9 8 7 7 7 6 5 5 4 3 3 3 3 2 2 1 1 0 0 1 1 2 2 3 3 3 3 3 4 4 4 4 5 5 5 6 5 5 6 6 6 7 7 7 8 8 9 9 10 10 11 10 12 11 11 11 11 11
10 10 12 15 16 14 14 15 15 14 13 12 12 12 13 12 12 10 10 10 8 10 10 10 10 9 8 8 7 7 7 6 5 5 4 4 3 3 3 3 2 2 2 1 0 0 1 1 1 2 3 3 3 3 3 3 4 4 5 5 5 6 6 6 6 6 6 7 7 8 7 8 8 8 9 11 12 12 11 12 11 10 11 11 11
14 15 15 14 13 14 16 15 14 14 14 14 12 11 10 9 10 10 10 11 10 11 11 10 9 9 8 8 7 6 6 6 6 5 5 4 4 3 3 3 2 2 1 1 0 1 1 1 2 2 3 3 3 3 2 3 5 6 6 6 6 7 7 8 7 7 7 7 7 7 7 7 9 13 17 16 15 14 12 11 11 10 11 11 11
16 17 16 16 15 12 12 13 13 14 15 13 12 11 11 11 12 11 11 10 10 11 11 10 10 9 8 7 7 6 7 6 6 5 5 4 4 4 3 3 3 2 2 1 0 1 1 2 2 3 3 3 2 2 3 7 8 6 7 6 7 7 7 8 9 9 8 8 8 8 8 12 14 15 15 16 16 16 16 13 12 11 11 11 11
15 14 14 13 12 12 12 12 13 15 15 13 12 12 12 14 13 12 12 11 11 11 11 10 11 8 8 8 7 7 7 7 6 5 4 4 4 3 3 3 3 2 2 1 1 2 2 1 2 3 4 3 3 2 6 9 9 10 8 7 7 7 7 8 8 9 9 9 8 8 9 10 11 12 11 13 16 17 16 17 17 17 15 12 12
13 13 12 10 11 12 14 15 15 15 16 14 14 14 13 14 13 12 11 10 11 11 11 11 10 8 8 8 7 7 7 6 6 5 5 4 4 4 3 3 3 3 2 2 2 2 2 2 2 3 4 4 4 4 8 9 10 10 10 8 7 7 7 7 8 8 8 8 9 9 8 8 8 9 11 13 14 15 16 17 17 17 17 18 17
11 10 11 12 14 15 15 14 14 15 16 16 15 11 12 14 14 13 9 10 11 11 10 10 9 9 9 8 7 7 6 6 5 5 5 4 4 4 4 4 4 3 2 3 3 2 3 2 3 3 4 4 4 5 8 10 10 11 11 10 7 7 7 7 8 8 8 8 8 9 9 8 8 12 12 11 11 12 15 17 17 18 18 18 19
8 10 12 12 10 10 11 14 14 14 15 15 15 17 17 14 11 9 11 10 11 10 10 9 8 9 8 8 8 6 6 6 5 5 5 5 4 4 4 3 3 3 3 3 3 3 3 3 3 3 4 5 5 6 9 10 11 11 11 10 7 8 7 7 8 8 8 8 9 10 11 10 10 11 12 13 13 14 14 14 14 13 14 17 21
8 9 10 11 13 13 13 14 15 15 14 10 12 12 8 7 9 10 10 10 10 10 9 9 9 8 7 7 8 7 6 6 5 5 5 5 5 4 4 4 4 4 4 4 3 3 3 3 3 3 4 5 5 7 9 11 11 11 11 10 6 6 6 7 7 8 9 9 10 10 11 12 13 13 12 14 15 16 15 14 13 14 14 15 16
9 10 11 11 12 13 14 14 11 9 9 10 11 10 9 9 8 9 9 9 9 9 9 8 8 8 9 9 8 7 6 6 6 6 5 5 5 5 5 4 3 3 3 3 2 3 3 4 3 4 4 6 5 7 10 11 11 11 11 6 5 6 6 7 7 8 9 9 10 10 11 13 14 14 17 21 20 17 15 14 16 15 15 15 15
8 8 7 7 7 8 8 6 7 9 9 10 9 8 8 8 8 7 7 7 8 8 9 10 9 10 10 9 9 8 7 7 6 6 6 6 6 5 5 4 4 4 4 4 3 3 3 3 4 4 5 6 6 7 10 11 11 11 8 5 6 6 6 7 8 8 9 9 10 11 12 13 15 15 19 22 22 22 16 14 14 14 13 12 13
4 4 3 4 5 4 4 6 7 8 9 8 8 9 9 8 9 9 8 9 8 10 10 9 11 10 10 9 9 8 8 7 7 7 7 6 5 4 5 5 4 4 4 4 3 3 4 4 5 5 5 5 6 8 11 12 11 10 8 6 5 6 7 7 8 9 8 10 12 18 18 15 16 16 20 22 24 21 14 15 16 17 15 16 15
5 6 6 6 6 6 6 6 7 8 9 8 9 10 9 8 9 9 9 9 10 11 11 12 11 11 10 9 7 8 8 7 7 7 6 6 6 5 4 4 3 3 3 3 3 3 3 4 4 5 7 7 7 8 11 11 11 10 8 5 5 6 7 7 8 9 10 10 11 13 18 17 16 18 24 24 25 22 16 16 17 17 17 14 13
4 3 4 6 7 7 6 8 9 9 8 9 8 9 11 11 9 8 8 10 12 13 13 10 8 9 8 7 7 8 8 9 8 6 5 5 5 4 5 4 4 3 3 3 3 3 3 4 4 5 5 5 6 6 8 11 11 10 10 6 6 6 7 9 9 10 10 9 9 9 11 16 19 21 23 25 25 27 21 18 16 15 15 15 12
4 5 6 6 6 7 8 9 7 7 8 9 7 8 9 9 9 8 11 13 13 10 8 9 8 8 8 8 7 8 11 7 6 6 6 5 5 5 5 4 4 3 3 2 3 3 3 4 4 5 5 6 6 6 7 10 11 10 10 8 6 7 8 8 8 9 8 9 10 10 9 13 20 23 24 25 26 27 25 18 15 14 13 18 21
2 4 5 4 4 4 3 3 5 7 8 7 7 11 9 9 8 11 14 13 9 8 8 7 7 8 8 8 9 7 7 7 6 6 6 6 5 4 4 4 3 3 3 3 3 3 3 3 4 5 5 6 6 9 7 9 10 10 10 11 7 7 8 9 10 9 10 9 8 9 10 15 21 23 25 26 26 25 26 17 15 22 25 25 18
5 4 5 5 5 6 7 7 5 7 8 8 11 12 10 11 10 16 13 8 8 7 8 7 9 11 13 13 12 13 9 6 6 6 6 6 5 4 4 3 3 3 3 3 4 4 3 4 3 4 4 5 5 6 9 7 9 10 11 11 12 10 13 9 9 10 9 9 9 10 12 18 22 24 25 25 24 25 20 14 22 23 23 25 19
3 2 6 5 5 4 5 5 5 5 6 7 11 12 11 12 16 13 6 5 7 8 9 11 12 12 13 12 12 10 7 6 7 6 6 5 5 5 4 4 4 3 3 3 3 3 3 3 3 3 4 4 4 4 7 8 7 10 10 11 12 13 13 9 9 8 8 9 10 10 13 22 23 24 24 22 22 20 14 20 21 22 22 19 10
7 6 5 5 8 7 5 4 5 6 6 9 10 12 12 14 15 7 9 10 11 11 12 12 13 14 14 8 7 7 7 6 6 7 7 6 5 5 4 4 4 4 3 3 3 2 3 3 3 4 3 3 4 4 4 6 9 10 10 11 12 13 14 13 9 8 9 9 13 19 20 22 22 20 20 18 14 14 17 18 19 19 17 9 9
2 2 8 6 4 3 4 7 5 6 7 8 8 10 13 18 7 7 9 11 12 12 12 13 12 11 9 8 9 6 6 6 6 6 6 5 6 6 5 4 4 4 4 3 4 3 3 3 4 3 4 4 4 4 5 5 6 7 7 9 13 13 13 11 12 10 14 17 15 17 20 19 15 13 11 9 9 10 16 17 16 14 8 8 8
10 10 7 6 7 7 9 9 10 8 8 8 10 10 13 4 5 7 9 10 11 13 13 12 12 8 7 7 9 8 7 6 6 5 5 5 5 5 5 4 4 4 4 4 4 4 4 4 4 3 3 4 4 4 5 5 4 4 5 7 8 8 8 9 8 6 7 4 7 9 10 13 11 14 13 11 10 10 8 8 9 9 8 8 8
8 5 8 6 8 10 11 10 11 8 9 9 10 12 12 8 5 8 10 10 11 12 12 15 15 8 8 8 8 10 9 7 7 8 7 6 5 6 6 6 6 5 5 4 4 4 5 4 3 3 3 4 5 5 5 5 5 5 6 6 7 7 4 5 2 5 2 3 5 8 8 6 6 6 6 5 5 6 6 6 7 8 9 8 10
6 7 8 10 10 11 12 11 12 7 9 11 13 12 10 10 8 9 10 13 12 12 10 11 9 6 7 7 7 7 8 7 7 7 6 6 6 7 6 4 4 2 3 4 4 5 4 3 3 3 3 5 5 6 5 6 7 9 9 8 7 6 6 3 6 8 2 3 3 4 4 5 5 6 7 6 6 7 7 6 7 7 8 8 8
5 3 7 8 8 11 11 12 11 5 8 11 12 11 9 10 8 10 11 12 11 9 9 9 7 7 6 7 7 7 6 6 5 6 5 4 6 8 6 5 4 8 13 13 10 6 5 4 5 5 6 6 6 7 10 11 12 12 13 14 13 13 12 8 10 7 3 2 4 4 4 5 6 6 6 7 7 7 8 9 7 9 9 8 8
5 6 7 9 10 10 9 10 10 7 9 9 9 9 9 10 11 11 12 11 10 8 7 6 7 8 8 7 6 5 5 5 4 4 4 4 3 5 13 15 13 10 11 13 15 17 16 16 10 7 9 17 19 18 17 14 13 14 14 14 13 11 10 8 11 5 3 2 3 4 4 4 4 5 6 7 8 9 9 9 9 9 8 9 9
Wind_Direction
76 64 52 42 32 21 18 34 54 61 46 49 63 61 60 69 76 70 58 55 72 73 66 68 68 70 64 60 65 57 54 54 52 47 47 44 41 44 43 43 40 40 39 44 49 56 57 52 50 48 47 47 48 47 41 36 30 26 41 50 42 47 38 18 7 325 341 342 338 304 291 222 224 175 91 62 355 339 351 354 0 348 356 355 353
143 105 77 59 50 34 46 49 42 67 48 55 63 67 70 71 76 76 70 71 68 74 82 73 63 61 75 66 67 60 55 53 54 47 45 44 42 43 44 42 42 43 38 39 43 44 48 48 45 43 45 51 53 49 42 37 32 29 17 52 50 41 43 20 14 351 20 354 333 336 279 325 156 98 81 2 340 340 0 31 358 348 5 357 347
124 104 88 88 61 49 55 51 52 55 58 59 64 75 74 73 74 78 77 79 73 77 82 82 80 77 84 84 81 80 65 61 61 55 49 50 46 43 42 45 46 46 43 42 43 42 47 49 46 43 43 44 50 47 42 40 33 31 27 19 36 50 50 35 28 24 9 336 307 314 348 342 132 142 15 342 325 4 15 347 351 359 13 357 342
151 139 124 97 80 69 61 58 54 60 66 66 62 73 73 77 84 89 88 86 86 84 87 89 91 92 89 90 87 84 85 74 68 58 49 47 47 43 42 41 44 49 44 46 50 48 48 51 51 49 47 46 50 51 44 40 34 31 29 26 19 45 36 40 33 31 23 0 16 346 316 323 328 353 341 321 321 16 340 346 16 2 348 347 341
152 146 129 113 95 72 63 57 62 71 65 55 51 66 79 87 90 93 90 91 96 100 100 105 105 102 103 102 100 96 84 76 69 56 48 45 44 36 34 37 40 43 43 43 45 47 46 45 49 50 50 46 49 51 48 40 35 33 28 33 28 29 41 38 40 34 34 26 11 355 352 343 359 324 328 318 96 329 330 0 335 334 339 348 341
159 132 112 94 92 92 84 68 63 66 60 42 40 63 85 93 93 93 93 93 95 97 109 115 115 117 120 114 103 91 79 65 61 59 51 47 47 40 37 37 41 44 43 43 42 43 44 42 42 45 45 43 44 50 49 45 36 33 26 28 31 23 31 37 36 38 43 33 33 38 18 344 329 322 319 317 325 309 357 326 319 331 338 335 326
134 108 121 126 113 111 94 77 67 72 65 60 66 74 82 84 86 87 89 89 86 92 95 102 97 91 90 89 92 95 98 82 79 77 75 67 60 52 48 40 38 44 43 43 42 41 44 42 43 45 45 45 41 44 43 40 37 30 24 31 28 23 25 43 33 16 32 37 25 29 27 1 330 328 340 321 323 334 318 325 322 333 332 325 320
153 151 146 130 130 121 113 91 76 78 81 82 81 81 84 88 90 89 89 90 90 98 91 90 98 97 96 92 90 90 91 100 93 83 79 77 71 60 57 49 42 42 43 41 41 39 40 43 41 44 47 43 43 45 42 34 35 34 30 29 31 33 29 34 32 25 23 16 8 12 8 359 344 339 339 334 313 310 314 313 310 323 319 317 315
165 163 160 152 143 130 120 111 101 106 97 98 98 98 97 97 96 97 95 92 91 94 98 91 94 99 100 103 98 91 95 96 94 89 83 77 76 65 62 57 53 47 44 44 41 41 40 42 42 45 45 43 42 44 41 36 34 31 28 30 29 32 34 24 27 27 20 14 359 5 360 359 343 351 338 341 326 314 307 320 316 311 292 290 315
179 171 156 149 147 136 117 124 122 107 101 108 112 112 109 107 104 101 96 96 99 97 95 94 96 101 99 101 104 105 105 103 98 93 88 81 74 68 62 58 52 50 46 42 42 41 40 40 42 44 46 44 45 43 39 38 33 33 32 32 26 32 30 31 31 16 14 13 5 352 0 355 348 348 348 341 323 301 304 314 318 322 319 310 314
178 173 166 159 146 148 159 144 126 121 119 124 118 118 115 110 109 100 98 100 99 100 102 98 94 94 98 100 103 109 109 108 105 93 89 84 78 70 66 61 56 52 48 44 40 38 43 43 43 45 45 44 43 39 35 32 31 31 30 35 38 31 26 23 27 23 6 12 6 5 3 1 351 339 335 337 325 317 313 307 311 311 306 308 310
174 172 174 166 165 169 166 148 145 138 133 129 127 122 115 110 112 105 100 102 103 105 101 95 92 93 96 101 102 105 109 105 100 95 87 84 81 79 77 71 62 58 51 47 38 33 38 40 39 42 42 38 39 37 32 24 27 30 31 31 31 31 27 23 25 19 10 4 7 360 353 346 340 339 333 324 322 316 311 304 307 314 304 290 305
176 179 174 178 177 171 171 159 151 154 149 144 138 130 120 116 118 111 108 110 107 106 100 99 99 99 103 103 101 100 97 97 96 96 90 86 79 74 69 66 58 54 44 43 35 29 33 34 34 33 36 37 35 34 31 25 21 30 31 30 32 26 24 14 23 15 7 2 350 341 339 336 335 337 326 319 314 310 309 305 304 308 301 304 307
182 182 182 182 178 175 171 166 163 157 155 149 145 137 129 123 122 113 115 114 112 108 106 104 101 104 103 104 104 103 100 98 95 92 87 82 80 78 76 74 71 63 54 48 34 33 39 39 39 42 40 39 36 33 29 26 15 26 30 25 22 23 14 7 17 4 357 354 342 333 340 330 327 333 325 320 319 320 314 313 311 306 293 295 298
184 186 186 182 180 176 173 170 166 163 158 153 147 142 133 125 126 123 122 123 120 117 114 109 107 104 103 103 104 106 104 100 95 95 96 96 91 90 82 78 76 69 62 57 41 42 42 43 39 41 39 36 34 29 19 23 12 13 28 20 17 14 358 359 354 357 345 348 340 339 328 319 327 329 326 317 316 309 308 311 314 314 311 296 299
183 187 187 187 182 178 174 175 171 165 162 157 154 150 143 135 132 129 129 131 128 123 118 115 111 109 107 104 101 99 101 103 103 100 97 97 98 94 90 84 86 88 82 77 63 52 45 44 50 44 38 35 30 25 16 14 4 8 17 15 10 7 342 349 346 340 339 334 330 332 321 317 319 321 318 314 310 310 304 301 302 299 304 309 310
181 188 188 184 181 184 185 180 175 170 169 169 165 164 155 145 140 135 132 132 130 125 121 119 117 114 109 108 110 111 110 108 109 111 109 107 105 97 92 91 89 80 83 70 55 50 38 27 32 32 28 25 19 18 10 2 347 356 7 0 3 350 333 336 342 339 335 323 327 322 313 310 310 313 307 305 308 300 296 295 290 290 296 293 303
182 186 188 186 184 185 185 186 182 179 171 167 167 166 160 152 148 141 142 139 137 131 127 126 124 119 120 120 115 112 112 116 119 122 118 114 109 104 106 95 78 79 82 65 58 47 44 34 33 32 26 18 15 8 360 351 338 348 346 344 3 339 329 329 328 331 326 324 317 316 311 308 309 308 303 300 293 295 290 286 286 285 281 279 287
186 192 188 187 187 186 187 186 182 176 173 170 167 168 166 159 153 148 145 144 140 135 131 128 129 126 128 125 125 126 126 122 118 114 113 109 103 99 98 97 99 82 70 64 53 47 44 33 41 22 21 10 6 1 349 345 339 352 349 353 3 349 340 336 340 342 328 328 323 319 319 312 316 311 306 301 297 291 291 290 287 283 275 271 274
190 190 191 186 184 186 187 184 178 176 177 176 170 172 173 163 155 149 141 141 139 138 139 137 135 131 129 132 137 133 127 123 123 125 116 108 105 105 102 97 87 80 73 63 58 49 40 36 27 28 8 7 7 3 357 354 350 5 355 356 353 348 343 337 341 342 334 327 324 325 323 324 322 317 310 308 303 297 294 290 287 282 280 276 275
189 188 183 178 180 187 185 178 175 175 177 177 177 179 173 167 166 159 153 152 150 148 147 143 141 140 144 147 143 137 131 125 123 120 112 105 102 95 89 94 99 83 74 74 68 52 38 30 24 18 13 5 6 2 1 356 356 357 351 347 342 341 338 335 334 330 333 326 324 319 318 322 321 316 314 311 306 301 297 291 287 285 282 281 282
187 181 172 173 180 182 171 165 169 177 183 185 182 178 176 178 173 167 163 163 159 159 156 151 151 152 156 149 143 137 134 129 129 122 108 105 99 98 107 128 121 112 103 83 71 59 31 20 20 12 7 6 358 356 356 351 350 343 339 340 330 332 329 329 328 324 334 328 322 319 321 324 325 317 312 308 307 308 303 299 295 294 290 290 287
179 172 173 178 180 179 175 174 179 187 188 187 184 185 182 181 177 177 173 171 168 164 159 159 158 159 157 150 144 139 139 142 130 115 106 108 116 129 146 151 140 130 114 74 39 40 23 18 14 6 356 353 350 347 345 342 336 334 325 327 326 325 326 328 329 328 331 328 323 324 321 325 323 316 312 310 308 304 306 303 301 299 295 293 292
163 167 170 181 182 176 173 179 185 191 190 187 185 186 185 185 183 179 181 174 170 168 165 164 164 161 155 149 145 143 147 141 122 115 128 143 157 157 154 145 131 105 94 70 54 24 20 7 358 353 346 341 343 340 331 331 327 326 324 322 324 323 322 321 322 322 325 324 321 320 320 324 319 315 314 312 309 310 308 304 301 301 298 297 296
169 176 181 180 183 188 190 188 188 187 185 186 187 188 188 189 185 184 185 180 175 172 171 172 168 160 158 152 149 153 147 136 128 140 156 161 170 160 144 128 113 100 72 67 45 36 6 358 352 344 331 335 337 330 328 323 325 321 318 318 317 321 318 316 316 317 318 316 316 314 316 319 318 313 312 313 313 311 307 306 302 304 300 300 298
180 176 177 193 196 190 187 188 186 187 186 185 188 189 191 191 191 186 185 180 177 171 177 174 170 164 161 157 158 156 147 140 146 159 169 171 163 151 135 113 96 99 91 85 45 11 15 346 339 326 315 320 323 321 317 315 316 320 314 315 314 314 317 316 315 312 312 312 309 310 312 311 311 311 309 310 309 310 309 302 304 301 301 298 297
186 186 191 183 181 195 197 189 185 184 185 187 187 189 191 191 189 187 186 178 174 176 179 176 173 170 164 164 165 158 147 151 164 170 168 167 152 134 128 118 113 112 112 116 56 37 325 337 313 315 308 315 309 307 305 313 315 316 317 317 318 312 309 308 302 306 304 302 302 302 302 303 303 304 302 306 309 308 305 303 304 304 302 301 300
192 190 187 192 198 195 189 190 186 184 184 187 189 191 191 189 187 185 187 182 176 178 178 179 175 176 172 167 163 150 150 159 163 162 165 157 145 139 131 128 132 148 133 126 166 315 275 300 299 295 298 300 299 298 308 312 315 317 315 315 310 307 306 301 299 300 296 295 296 295 294 295 295 299 305 304 305 304 305 303 303 303 304 304 303
200 204 204 204 198 197 195 190 186 181 183 186 188 192 190 189 191 190 185 186 175 177 181 179 181 182 177 164 151 146 150 156 161 163 165 159 149 142 142 140 145 142 127 143 240 239 274 271 275 280 285 292 286 293 318 327 323 315 311 305 302 300 300 302 300 299 295 295 293 292 291 293 297 297 295 293 294 296 299 298 300 302 304 303 302
202 205 204 203 203 195 189 187 183 183 185 186 189 189 187 189 196 192 184 182 171 184 180 181 186 187 170 160 153 150 161 162 166 172 168 155 152 155 156 152 150 138 139 142 212 252 258 271 282 282 285 276 277 274 291 296 300 302 304 300 300 296 296 296 298 299 298 296 296 294 296 297 295 293 292 293 295 295 291 289 293 298 299 299 298
208 208 207 204 197 189 181 181 188 190 190 184 189 187 192 198 197 193 186 180 175 181 182 182 190 181 164 157 156 163 162 170 172 169 159 155 159 163 160 152 149 146 167 176 218 226 239 258 261 279 281 275 266 264 286 299 302 301 300 296 293 293 290 291 290 294 297 304 303 302 299 297 294 290 291 292 301 297 294 293 291 291 290 292 297
208 209 202 193 192 193 193 194 194 195 193 190 191 193 193 199 197 193 184 168 176 181 182 186 187 168 167 165 166 161 166 168 166 167 160 157 155 165 168 160 157 165 180 178 219 222 248 244 254 264 270 268 275 275 293 301 301 299 299 297 291 289 287 286 290 292 297 304 303 303 300 297 294 297 302 304 300 297 297 294 293 292 290 287 282
209 200 196 197 198 199 197 195 194 194 195 197 192 184 196 200 194 190 161 166 180 180 181 185 178 171 171 170 165 165 166 166 172 162 155 151 162 176 173 167 174 167 177 195 204 221 232 238 250 260 272 273 271 281 293 299 299 299 299 297 289 284 284 284 289 292 294 297 301 302 301 297 296 295 299 299 295 298 302 296 292 289 287 284 282
204 204 203 203 199 196 196 195 194 195 196 199 192 196 202 193 179 154 165 176 177 178 180 181 169 175 171 169 167 162 167 169 163 159 157 164 173 191 178 173 162 178 189 197 205 220 230 240 250 264 272 273 275 279 292 296 298 297 296 296 288 287 284 285 285 287 289 291 293 299 303 301 297 302 302 302 306 302 297 296 290 281 278 279 281
195 202 204 201 200 199 200 202 204 203 200 187 190 203 187 164 162 168 174 169 177 172 178 175 172 175 168 169 168 171 170 162 161 162 166 175 184 185 178 183 180 186 184 196 200 210 226 243 251 257 271 276 269 275 289 295 294 295 296 300 292 286 284 281 281 281 285 287 289 289 290 293 298 297 295 294 294 295 293 285 279 272 264 263 269
198 194 200 197 196 198 198 204 202 191 193 192 198 188 175 176 160 168 168 173 171 173 176 167 171 176 176 176 170 171 167 164 163 168 172 185 190 191 189 181 177 183 185 190 208 210 230 239 250 254 262 269 268 275 289 290 292 295 301 300 287 282 280 279 284 279 281 284 288 288 289 290 291 292 291 293 293 294 292 283 276 267 263 261 259
196 194 196 194 190 193 198 182 178 190 191 196 186 164 164 150 160 173 165 173 170 176 179 178 179 179 179 177 175 169 168 166 167 169 182 190 187 190 191 177 179 188 185 193 199 211 224 238 245 246 254 267 274 277 283 289 294 297 302 290 285 278 277 278 279 280 281 280 283 282 284 288 290 289 292 295 296 294 286 278 275 272 262 253 255
142 151 147 166 179 171 168 179 185 191 194 181 162 161 160 160 171 167 169 176 177 188 181 175 186 181 178 174 177 168 163 168 168 183 183 189 188 190 184 186 185 179 190 190 203 214 226 230 238 245 248 263 272 277 284 292 294 293 293 289 282 277 278 279 282 277 278 279 273 274 271 277 281 284 289 293 296 300 296 292 290 284 278 273 268
171 164 162 163 166 167 167 172 176 186 187 164 155 154 152 170 171 171 174 174 190 192 182 186 189 177 175 172 167 167 170 165 174 184 175 182 184 190 178 175 186 177 186 191 204 221 229 246 238 246 258 261 267 274 283 289 290 288 289 280 277 280 279 280 284 282 275 270 276 274 269 267 279 292 298 303 304 302 297 290 288 287 286 283 278
168 141 135 144 139 135 153 173 187 190 159 154 152 163 176 175 172 162 174 192 199 197 192 182 165 160 167 164 169 166 170 168 173 170 171 183 178 174 181 183 177 183 180 189 206 218 228 254 259 252 251 252 259 266 272 284 286 287 284 281 279 276 278 279 280 279 274 270 269 281 286 292 296 299 302 304 305 303 300 300 297 292 292 292 301
166 158 143 149 167 175 179 184 185 161 153 160 159 157 175 182 165 173 197 205 203 188 164 166 162 160 166 166 168 175 164 171 167 164 170 176 187 185 171 178 178 184 176 195 210 235 237 248 252 252 256 255 244 258 268 279 285 286 283 279 273 271 278 285 290 291 290 295 297 291 305 308 309 309 307 306 307 308 309 309 306 303 302 303 306
76 139 163 156 168 188 175 173 170 154 154 159 160 174 184 172 172 198 209 208 184 162 159 160 162 171 166 162 166 165 164 154 151 158 171 181 185 174 173 175 188 173 178 204 216 230 236 247 252 251 253 258 255 254 263 274 283 285 282 277 273 279 283 291 293 294 295 295 303 316 315 310 309 308 310 312 312 311 311 311 306 305 307 310 311
154 166 202 172 168 192 205 195 160 155 165 165 173 184 189 183 191 212 209 180 158 157 162 165 163 167 171 172 164 160 161 152 159 175 167 174 163 169 177 173 177 176 190 209 222 223 229 242 244 252 254 254 260 259 262 274 279 280 279 280 284 287 292 293 292 291 297 309 315 312 308 308 313 316 315 313 312 314 315 310 311 313 314 316 320
198 170 170 178 197 202 204 181 160 166 172 172 179 191 190 191 212 217 162 141 156 160 149 167 179 178 159 169 169 159 149 161 165 166 176 171 174 169 176 193 182 191 199 208 224 204 223 233 240 251 251 259 258 260 267 273 276 277 281 288 292 293 294 291 291 299 310 309 309 307 311 317 319 317 315 315 315 317 315 316 319 319 324 326 322
183 188 169 183 200 202 200 186 179 175 182 184 195 193 195 205 223 177 169 171 166 162 170 178 178 174 173 161 152 169 164 165 166 167 172 179 171 170 189 190 181 200 203 217 228 208 225 239 244 248 253 251 255 261 272 279 284 283 284 292 297 296 296 298 303 305 305 305 306 312 318 319 318 318 320 320 320 320 323 323 324 327 330 324 323
150 172 185 196 199 199 197 210 202 185 191 194 199 200 198 219 190 164 171 152 159 166 178 189 184 173 172 151 158 161 164 169 173 184 190 188 175 180 198 183 186 196 193 207 227 216 222 228 236 241 244 249 258 273 278 280 280 279 282 293 302 300 297 297 304 305 306 307 311 314 316 318 318 320 322 322 321 322 323 324 324 326 323 321 319
192 208 172 169 180 205 217 217 221 194 194 198 202 212 221 213 150 156 150 163 170 177 184 173 171 171 162 164 171 174 171 172 182 187 195 196 191 187 189 192 195 198 197 203 211 212 224 223 228 232 243 252 267 267 278 280 271 278 288 289 285 289 291 305 304 298 307 320 313 316 314 314 312 314 317 315 316 322 325 327 328 326 318 313 313
207 171 179 179 188 207 218 216 226 211 188 193 201 216 221 208 160 153 160 164 176 185 186 181 173 164 172 177 184 176 173 177 185 185 186 190 195 194 193 197 192 191 189 206 198 213 218 218 221 225 235 260 263 268 273 265 269 277 275 284 297 298 294 309 287 313 96 319 309 312 312 312 312 316 319 320 323 322 317 316 322 324 316 310 308
180 194 184 196 201 209 218 215 227 203 183 201 213 219 215 201 180 149 164 169 186 194 196 180 167 166 180 178 185 172 189 181 176 187 208 198 184 187 198 214 215 198 206 209 216 223 220 216 215 220 235 266 262 266 260 259 268 279 291 296 293 295 308 314 315 326 89 326 315 309 311 317 322 321 324 324 327 328 321 314 307 317 318 320 321
219 178 199 216 217 213 217 222 231 196 198 205 214 214 205 189 172 164 166 181 189 172 182 182 177 184 177 171 190 188 188 186 177 185 188 227 236 219 208 201 217 214 225 232 227 227 214 202 212 223 213 239 254 270 268 270 285 293 290 287 289 296 303 311 317 343 47 330 311 305 307 316 319 322 322 324 327 329 323 321 317 323 325 322 318
200 205 219 216 222 221 229 237 236 214 211 212 214 211 196 184 171 164 179 190 179 179 190 185 172 196 186 179 176 176 177 184 184 180 183 195 205 223 227 227 225 225 228 231 235 239 240 235 221 236 237 242 250 256 259 277 289 287 285 287 292 298 305 319 324 340 327 307 306 299 303 307 309 314 318 320 324 324 323 320 318 319 322 321 321